Time,TemperatureF,DewpointF,PressureIn,WindDirection,WindDirectionDegrees,WindSpeedMPH,WindSpeedGustMPH,Humidity,HourlyPrecipIn,Conditions,Clouds,dailyrainin,SoftwareType,DateUTC
2013-10-29 00:02:00,37.2,37.2,30.28,ENE,59,0.0,0.0,100,0.00,,CLR,0.00,VWS V14.01,2013-10-29 04:02:00,
2013-10-29 00:03:00,37.1,37.1,30.28,ENE,59,0.0,0.0,100,0.00,,CLR,0.00,VWS V14.01,2013-10-29 04:03:00,
2013-10-29 00:08:00,37.0,37.0,30.28,ENE,59,0.0,0.0,100,0.00,,CLR,0.00,VWS V14.01,2013-10-29 04:08:00,
2013-10-29 00:13:00,36.9,36.9,30.28,ENE,59,0.0,0.0,100,0.00,,CLR,0.00,VWS V14.01,2013-10-29 04:13:00,
2013-10-29 00:18:00,36.9,36.9,30.28,ENE,59,0.0,0.0,100,0.00,,CLR,0.00,VWS V14.01,2013-10-29 04:18:00,
2013-10-29 00:23:00,36.8,36.8,30.28,ENE,59,0.0,0.0,100,0.00,,CLR,0.00,VWS V14.01,2013-10-29 04:23:00,
2013-10-29 00:28:00,36.8,36.8,30.28,ENE,59,0.0,0.0,100,0.00,,CLR,0.00,VWS V14.01,2013-10-29 04:28:00,
2013-10-29 00:33:00,36.7,36.7,30.28,ENE,59,0.0,0.0,100,0.00,,CLR,0.00,VWS V14.01,2013-10-29 04:33:00,
2013-10-29 00:38:00,36.6,36.6,30.28,ENE,59,0.0,0.0,100,0.00,,CLR,0.00,VWS V14.01,2013-10-29 04:38:00,
2013-10-29 00:43:00,36.4,36.4,30.29,ENE,59,0.0,0.0,100,0.00,,CLR,0.00,VWS V14.01,2013-10-29 04:43:00,
2013-10-29 00:48:00,36.2,36.2,30.29,ENE,59,0.0,0.0,100,0.00,,CLR,0.00,VWS V14.01,2013-10-29 04:48:00,
2013-10-29 00:53:00,36.1,36.1,30.29,ENE,59,0.0,0.0,100,0.00,,CLR,0.00,VWS V14.01,2013-10-29 04:53:00,
2013-10-29 00:58:00,36.0,36.0,30.29,ENE,59,0.0,0.0,100,0.00,,CLR,0.00,VWS V14.01,2013-10-29 04:58:00,
2013-10-29 01:03:00,35.9,35.9,30.29,ENE,59,0.0,0.0,100,0.00,,CLR,0.00,VWS V14.01,2013-10-29 05:03:00,
2013-10-29 01:08:00,35.8,35.8,30.29,ENE,59,0.0,0.0,100,0.00,,CLR,0.00,VWS V14.01,2013-10-29 05:08:00,
2013-10-29 01:13:00,35.7,35.7,30.29,ENE,59,0.0,0.0,100,0.00,,CLR,0.00,VWS V14.01,2013-10-29 05:13:00,
2013-10-29 01:18:00,35.9,35.9,30.29,ENE,59,0.0,0.0,100,0.00,,CLR,0.00,VWS V14.01,2013-10-29 05:18:00,
2013-10-29 01:23:00,35.8,35.8,30.29,ENE,59,0.0,0.0,100,0.00,,CLR,0.00,VWS V14.01,2013-10-29 05:23:00,
2013-10-29 01:29:00,35.9,35.9,30.29,ENE,59,0.0,0.0,100,0.00,,CLR,0.00,VWS V14.01,2013-10-29 05:29:00,
2013-10-29 01:34:00,35.9,35.9,30.29,ENE,59,0.0,0.0,100,0.00,,CLR,0.00,VWS V14.01,2013-10-29 05:34:00,
2013-10-29 01:39:00,35.9,35.9,30.29,ENE,59,0.0,0.0,100,0.00,,CLR,0.00,VWS V14.01,2013-10-29 05:39:00,
2013-10-29 01:44:00,35.9,35.9,30.29,ENE,59,0.0,0.0,100,0.00,,CLR,0.00,VWS V14.01,2013-10-29 05:44:00,
2013-10-29 01:49:00,35.9,35.9,30.30,ENE,59,0.0,0.0,100,0.00,,CLR,0.00,VWS V14.01,2013-10-29 05:49:00,
2013-10-29 01:54:00,35.8,35.8,30.30,ENE,59,0.0,0.0,100,0.00,,CLR,0.00,VWS V14.01,2013-10-29 05:54:00,
2013-10-29 01:59:00,35.8,35.8,30.30,ENE,59,0.0,0.0,100,0.00,,CLR,0.00,VWS V14.01,2013-10-29 05:59:00,
2013-10-29 02:04:00,35.6,35.6,30.30,ENE,59,0.0,0.0,100,0.00,,CLR,0.00,VWS V14.01,2013-10-29 06:04:00,
2013-10-29 02:09:00,35.6,35.6,30.30,ENE,59,0.0,0.0,100,0.00,,CLR,0.00,VWS V14.01,2013-10-29 06:09:00,
2013-10-29 02:14:00,35.6,35.6,30.30,ENE,59,0.0,0.0,100,0.00,,CLR,0.00,VWS V14.01,2013-10-29 06:14:00,
2013-10-29 02:19:00,35.6,35.6,30.30,ENE,59,0.0,0.0,100,0.00,,CLR,0.00,VWS V14.01,2013-10-29 06:19:00,
2013-10-29 02:24:00,35.5,35.5,30.30,ENE,59,0.0,0.0,100,0.00,,CLR,0.00,VWS V14.01,2013-10-29 06:24:00,
2013-10-29 02:29:00,35.5,35.5,30.30,ENE,59,0.0,0.0,100,0.00,,CLR,0.00,VWS V14.01,2013-10-29 06:29:00,
2013-10-29 02:34:00,35.6,35.6,30.30,ENE,59,0.0,0.0,100,0.00,,CLR,0.00,VWS V14.01,2013-10-29 06:34:00,
2013-10-29 02:39:00,35.5,35.5,30.30,ENE,59,0.0,0.0,100,0.00,,CLR,0.00,VWS V14.01,2013-10-29 06:39:00,
2013-10-29 02:44:00,35.4,35.4,30.30,ENE,59,0.0,0.0,100,0.00,,CLR,0.00,VWS V14.01,2013-10-29 06:44:00,
2013-10-29 02:49:00,35.2,35.2,30.30,ENE,59,0.0,0.0,100,0.00,,CLR,0.00,VWS V14.01,2013-10-29 06:49:00,
2013-10-29 02:54:00,35.1,35.1,30.30,ENE,59,0.0,0.0,100,0.00,,CLR,0.00,VWS V14.01,2013-10-29 06:54:00,
2013-10-29 02:59:00,34.9,34.9,30.30,ENE,59,0.0,0.0,100,0.00,,CLR,0.00,VWS V14.01,2013-10-29 06:59:00,
2013-10-29 03:04:00,34.8,34.8,30.30,ENE,59,0.0,0.0,100,0.00,,CLR,0.00,VWS V14.01,2013-10-29 07:04:00,
2013-10-29 03:09:00,34.8,34.8,30.30,ENE,59,0.0,0.0,100,0.00,,CLR,0.00,VWS V14.01,2013-10-29 07:09:00,
2013-10-29 03:14:00,34.8,34.8,30.31,ENE,59,0.0,0.0,100,0.00,,CLR,0.00,VWS V14.01,2013-10-29 07:14:00,
2013-10-29 03:19:00,34.7,34.7,30.31,ENE,59,0.0,0.0,100,0.00,,CLR,0.00,VWS V14.01,2013-10-29 07:19:00,
2013-10-29 03:24:00,34.6,34.6,30.31,ENE,59,0.0,0.0,100,0.00,,CLR,0.00,VWS V14.01,2013-10-29 07:24:00,
2013-10-29 03:29:00,34.5,34.5,30.31,ENE,59,0.0,0.0,100,0.00,,CLR,0.00,VWS V14.01,2013-10-29 07:29:00,
2013-10-29 03:34:00,34.5,34.5,30.31,ENE,59,0.0,0.0,100,0.00,,CLR,0.00,VWS V14.01,2013-10-29 07:34:00,
2013-10-29 03:39:00,34.4,34.4,30.31,ENE,59,0.0,0.0,100,0.00,,CLR,0.00,VWS V14.01,2013-10-29 07:39:00,
2013-10-29 03:44:00,34.3,34.3,30.31,ENE,59,0.0,0.0,100,0.00,,CLR,0.00,VWS V14.01,2013-10-29 07:44:00,
2013-10-29 03:49:00,34.2,34.2,30.30,ENE,59,0.0,0.0,100,0.00,,CLR,0.00,VWS V14.01,2013-10-29 07:49:00,
2013-10-29 03:54:00,34.0,34.0,30.31,ENE,59,0.0,0.0,100,0.00,,CLR,0.00,VWS V14.01,2013-10-29 07:54:00,
2013-10-29 03:59:00,34.0,34.0,30.31,ENE,59,0.0,0.0,100,0.00,,CLR,0.00,VWS V14.01,2013-10-29 07:59:00,
2013-10-29 04:04:00,33.9,33.9,30.31,ENE,59,0.0,0.0,100,0.00,,CLR,0.00,VWS V14.01,2013-10-29 08:04:00,
2013-10-29 04:09:00,33.8,33.8,30.31,ENE,59,0.0,0.0,100,0.00,,CLR,0.00,VWS V14.01,2013-10-29 08:09:00,
2013-10-29 04:14:00,33.9,33.9,30.31,ENE,59,0.0,0.0,100,0.00,,CLR,0.00,VWS V14.01,2013-10-29 08:14:00,
2013-10-29 04:19:00,33.9,33.9,30.31,ENE,59,0.0,0.0,100,0.00,,CLR,0.00,VWS V14.01,2013-10-29 08:19:00,
2013-10-29 04:24:00,33.9,33.9,30.31,ENE,59,0.0,0.0,100,0.00,,CLR,0.00,VWS V14.01,2013-10-29 08:24:00,
2013-10-29 04:29:00,33.9,33.9,30.32,ENE,59,0.0,0.0,100,0.00,,CLR,0.00,VWS V14.01,2013-10-29 08:29:00,
2013-10-29 04:34:00,33.8,33.8,30.32,ENE,59,0.0,0.0,100,0.00,,CLR,0.00,VWS V14.01,2013-10-29 08:34:00,
2013-10-29 04:39:00,33.8,33.8,30.32,ENE,59,0.0,0.0,100,0.00,,CLR,0.00,VWS V14.01,2013-10-29 08:39:00,
2013-10-29 04:44:00,33.8,33.8,30.32,ENE,59,0.0,0.0,100,0.00,,CLR,0.00,VWS V14.01,2013-10-29 08:44:00,
2013-10-29 04:49:00,33.8,33.8,30.32,ENE,59,0.0,0.0,100,0.00,,CLR,0.00,VWS V14.01,2013-10-29 08:49:00,
2013-10-29 04:54:00,33.8,33.8,30.33,ENE,59,0.0,0.0,100,0.00,,CLR,0.00,VWS V14.01,2013-10-29 08:54:00,
2013-10-29 04:59:00,33.7,33.7,30.32,ENE,59,0.0,0.0,100,0.00,,CLR,0.00,VWS V14.01,2013-10-29 08:59:00,
2013-10-29 05:04:00,33.7,33.7,30.32,ENE,59,0.0,0.0,100,0.00,,CLR,0.00,VWS V14.01,2013-10-29 09:04:00,
2013-10-29 05:09:00,33.7,33.7,30.33,ENE,59,0.0,0.0,100,0.00,,CLR,0.00,VWS V14.01,2013-10-29 09:09:00,
2013-10-29 05:14:00,33.6,33.6,30.33,ENE,59,0.0,0.0,100,0.00,,CLR,0.00,VWS V14.01,2013-10-29 09:14:00,
2013-10-29 05:19:00,33.5,33.5,30.33,ENE,59,0.0,0.0,100,0.00,,CLR,0.00,VWS V14.01,2013-10-29 09:19:00,
2013-10-29 05:24:00,33.4,33.4,30.33,ENE,59,0.0,0.0,100,0.00,,SCT060,0.00,VWS V14.01,2013-10-29 09:24:00,
2013-10-29 05:29:00,33.4,33.4,30.34,ENE,59,0.0,0.0,100,0.00,,SCT060,0.00,VWS V14.01,2013-10-29 09:29:00,
2013-10-29 05:34:00,33.3,33.3,30.34,ENE,59,0.0,0.0,100,0.00,,SCT060,0.00,VWS V14.01,2013-10-29 09:34:00,
2013-10-29 05:39:00,33.3,33.3,30.34,ENE,59,0.0,0.0,100,0.00,,SCT060,0.00,VWS V14.01,2013-10-29 09:39:00,
2013-10-29 05:44:00,33.2,33.2,30.34,ENE,59,0.0,0.0,100,0.00,,SCT060,0.00,VWS V14.01,2013-10-29 09:44:00,
2013-10-29 05:49:00,33.1,33.1,30.34,ENE,59,0.0,0.0,100,0.00,,SCT060,0.00,VWS V14.01,2013-10-29 09:49:00,
2013-10-29 05:54:00,33.0,33.0,30.35,ENE,59,0.0,0.0,100,0.00,,SCT060,0.00,VWS V14.01,2013-10-29 09:54:00,
2013-10-29 05:59:00,33.1,33.1,30.35,ENE,59,0.0,0.0,100,0.00,,SCT060,0.00,VWS V14.01,2013-10-29 09:59:00,
2013-10-29 06:04:00,33.1,33.1,30.34,ENE,59,0.0,0.0,100,0.00,,SCT060,0.00,VWS V14.01,2013-10-29 10:04:00,
2013-10-29 06:09:00,33.1,33.1,30.35,ENE,59,0.0,0.0,100,0.00,,SCT060,0.00,VWS V14.01,2013-10-29 10:09:00,
2013-10-29 06:14:00,33.0,33.0,30.35,ENE,59,0.0,0.0,100,0.00,,SCT060,0.00,VWS V14.01,2013-10-29 10:14:00,
2013-10-29 06:19:00,33.0,33.0,30.35,ENE,59,0.0,0.0,100,0.00,,SCT060,0.00,VWS V14.01,2013-10-29 10:19:00,
2013-10-29 06:24:00,33.0,33.0,30.35,ENE,59,0.0,0.0,100,0.00,,SCT060,0.00,VWS V14.01,2013-10-29 10:24:00,
2013-10-29 06:29:00,33.0,33.0,30.35,ENE,59,0.0,0.0,100,0.00,,SCT060,0.00,VWS V14.01,2013-10-29 10:29:00,
2013-10-29 06:34:00,33.0,33.0,30.35,ENE,59,0.0,0.0,100,0.00,,SCT060,0.00,VWS V14.01,2013-10-29 10:34:00,
2013-10-29 06:39:00,33.0,33.0,30.35,ENE,59,0.0,0.0,100,0.00,,SCT060,0.00,VWS V14.01,2013-10-29 10:39:00,
2013-10-29 06:44:00,33.0,33.0,30.35,ENE,59,0.0,0.0,100,0.00,,SCT060,0.00,VWS V14.01,2013-10-29 10:44:00,
2013-10-29 06:49:00,32.9,32.9,30.35,ENE,59,0.0,0.0,100,0.00,,SCT060,0.00,VWS V14.01,2013-10-29 10:49:00,
2013-10-29 06:54:00,32.8,32.8,30.35,ENE,59,0.0,0.0,100,0.00,,SCT060,0.00,VWS V14.01,2013-10-29 10:54:00,
2013-10-29 07:00:00,32.7,32.7,30.35,ENE,59,0.0,0.0,100,0.00,,SCT060,0.00,VWS V14.01,2013-10-29 11:00:00,
2013-10-29 07:05:00,32.6,32.6,30.36,ENE,59,0.0,0.0,100,0.00,,SCT060,0.00,VWS V14.01,2013-10-29 11:05:00,
2013-10-29 07:10:00,32.6,32.6,30.36,ENE,59,0.0,0.0,100,0.00,,SCT060,0.00,VWS V14.01,2013-10-29 11:10:00,
2013-10-29 07:15:00,32.6,32.6,30.36,ENE,59,0.0,0.0,100,0.00,,SCT060,0.00,VWS V14.01,2013-10-29 11:15:00,
2013-10-29 07:20:00,32.6,32.6,30.36,ENE,59,0.0,0.0,100,0.00,,SCT060,0.00,VWS V14.01,2013-10-29 11:20:00,
2013-10-29 07:25:00,32.5,32.5,30.36,ENE,59,0.0,0.0,100,0.00,,SCT060,0.00,VWS V14.01,2013-10-29 11:25:00,
2013-10-29 07:30:00,32.4,32.4,30.36,ENE,59,0.0,0.0,100,0.00,,SCT060,0.00,VWS V14.01,2013-10-29 11:30:00,
2013-10-29 07:35:00,32.3,32.3,30.37,ENE,59,0.0,0.0,100,0.00,,SCT060,0.00,VWS V14.01,2013-10-29 11:35:00,
2013-10-29 07:40:00,32.3,32.3,30.36,ENE,59,0.0,0.0,100,0.00,,SCT060,0.00,VWS V14.01,2013-10-29 11:40:00,
2013-10-29 07:45:00,32.2,32.2,30.36,ENE,59,0.0,0.0,100,0.00,,SCT060,0.00,VWS V14.01,2013-10-29 11:45:00,
2013-10-29 07:50:00,32.2,32.2,30.36,ENE,59,0.0,0.0,100,0.00,,SCT060,0.00,VWS V14.01,2013-10-29 11:50:00,
2013-10-29 07:55:00,32.1,32.1,30.37,ENE,59,0.0,0.0,100,0.00,,SCT060,0.00,VWS V14.01,2013-10-29 11:55:00,
2013-10-29 08:02:00,32.1,32.1,30.37,ENE,59,0.0,0.0,100,0.00,,SCT060,0.00,VWS V14.01,2013-10-29 12:02:00,
2013-10-29 08:07:00,32.1,32.1,30.37,ENE,59,0.0,0.0,100,0.00,,SCT060,0.00,VWS V14.01,2013-10-29 12:07:00,
2013-10-29 08:12:00,32.2,32.2,30.37,ENE,59,0.0,0.0,100,0.00,,SCT060,0.00,VWS V14.01,2013-10-29 12:12:00,
2013-10-29 08:17:00,32.5,32.5,30.37,ENE,59,0.0,0.0,100,0.00,,SCT060,0.00,VWS V14.01,2013-10-29 12:17:00,
2013-10-29 08:22:00,32.8,32.8,30.37,ENE,59,0.0,0.0,100,0.00,,SCT060,0.00,VWS V14.01,2013-10-29 12:22:00,
2013-10-29 08:27:00,33.1,33.1,30.37,ENE,59,0.0,0.0,100,0.00,,SCT060,0.00,VWS V14.01,2013-10-29 12:27:00,
2013-10-29 08:32:00,33.4,33.4,30.38,ENE,59,0.0,0.0,100,0.00,,SCT060,0.00,VWS V14.01,2013-10-29 12:32:00,
2013-10-29 08:37:00,33.7,33.7,30.37,ENE,59,0.0,0.0,100,0.00,,SCT060,0.00,VWS V14.01,2013-10-29 12:37:00,
2013-10-29 08:42:00,34.2,34.2,30.37,ENE,59,0.0,0.0,100,0.00,,SCT060,0.00,VWS V14.01,2013-10-29 12:42:00,
2013-10-29 08:47:00,35.0,35.0,30.38,ENE,59,0.0,0.0,100,0.00,,SCT060,0.00,VWS V14.01,2013-10-29 12:47:00,
2013-10-29 08:52:00,35.4,35.4,30.38,ENE,59,0.0,0.0,100,0.00,,SCT060,0.00,VWS V14.01,2013-10-29 12:52:00,
2013-10-29 08:57:00,36.9,36.9,30.37,ENE,59,0.0,0.0,100,0.00,,SCT060,0.00,VWS V14.01,2013-10-29 12:57:00,
2013-10-29 09:02:00,37.9,37.9,30.38,ENE,59,0.0,0.0,100,0.00,,SCT060,0.00,VWS V14.01,2013-10-29 13:02:00,
2013-10-29 09:07:00,38.8,38.8,30.38,ENE,59,0.0,0.0,100,0.00,,CLR,0.00,VWS V14.01,2013-10-29 13:07:00,
2013-10-29 09:12:00,39.6,39.6,30.38,ENE,59,0.0,0.0,100,0.00,,CLR,0.00,VWS V14.01,2013-10-29 13:12:00,
2013-10-29 09:17:00,40.3,40.3,30.38,ENE,59,0.0,0.0,100,0.00,,CLR,0.00,VWS V14.01,2013-10-29 13:17:00,
2013-10-29 09:22:00,41.1,41.1,30.38,ENE,59,0.0,0.0,100,0.00,,CLR,0.00,VWS V14.01,2013-10-29 13:22:00,
2013-10-29 09:27:00,41.8,41.8,30.38,ENE,59,0.0,0.0,100,0.00,,CLR,0.00,VWS V14.01,2013-10-29 13:27:00,
2013-10-29 09:32:00,42.7,42.7,30.39,ENE,59,0.0,0.0,100,0.00,,CLR,0.00,VWS V14.01,2013-10-29 13:32:00,
2013-10-29 09:37:00,43.8,43.8,30.39,ENE,59,0.0,0.0,100,0.00,,CLR,0.00,VWS V14.01,2013-10-29 13:37:00,
2013-10-29 09:42:00,44.8,44.8,30.39,ENE,59,0.0,0.0,100,0.00,,CLR,0.00,VWS V14.01,2013-10-29 13:42:00,
2013-10-29 09:47:00,45.9,45.9,30.39,ENE,59,0.0,0.0,100,0.00,,CLR,0.00,VWS V14.01,2013-10-29 13:47:00,
2013-10-29 09:52:00,47.2,47.2,30.39,NNE,32,0.0,2.0,100,0.00,,CLR,0.00,VWS V14.01,2013-10-29 13:52:00,
2013-10-29 09:57:00,48.3,46.7,30.39,NNE,32,0.0,2.0,94,0.00,,CLR,0.00,VWS V14.01,2013-10-29 13:57:00,
2013-10-29 10:02:00,49.6,45.9,30.39,NE,49,0.0,2.0,87,0.00,,CLR,0.00,VWS V14.01,2013-10-29 14:02:00,
2013-10-29 10:07:00,50.4,44.5,30.39,NNW,335,0.0,3.0,80,0.00,,CLR,0.00,VWS V14.01,2013-10-29 14:07:00,
2013-10-29 10:12:00,51.2,45.6,30.39,NNW,336,1.0,3.0,81,0.00,,CLR,0.00,VWS V14.01,2013-10-29 14:12:00,
2013-10-29 10:17:00,52.0,45.4,30.39,NNE,15,2.0,3.0,78,0.00,,CLR,0.00,VWS V14.01,2013-10-29 14:17:00,
2013-10-29 10:22:00,52.4,44.4,30.39,ENE,68,1.0,3.0,74,0.00,,CLR,0.00,VWS V14.01,2013-10-29 14:22:00,
2013-10-29 10:27:00,52.8,44.4,30.38,NNE,24,2.0,3.0,73,0.00,,CLR,0.00,VWS V14.01,2013-10-29 14:27:00,
2013-10-29 10:32:00,52.8,43.7,30.39,NNW,334,1.0,5.0,71,0.00,,CLR,0.00,VWS V14.01,2013-10-29 14:32:00,
2013-10-29 10:37:00,52.9,43.8,30.39,NW,326,1.0,5.0,71,0.00,,CLR,0.00,VWS V14.01,2013-10-29 14:37:00,
2013-10-29 10:42:00,53.1,44.3,30.39,WNW,288,1.0,5.0,72,0.00,,CLR,0.00,VWS V14.01,2013-10-29 14:42:00,
2013-10-29 10:47:00,53.6,44.4,30.39,ESE,120,1.0,5.0,71,0.00,,CLR,0.00,VWS V14.01,2013-10-29 14:47:00,
2013-10-29 10:52:00,54.0,44.1,30.39,NW,313,2.0,5.0,69,0.00,,CLR,0.00,VWS V14.01,2013-10-29 14:52:00,
2013-10-29 10:57:00,54.2,44.6,30.39,NNW,340,0.0,5.0,70,0.00,,CLR,0.00,VWS V14.01,2013-10-29 14:57:00,
2013-10-29 11:02:00,54.6,45.0,30.39,ESE,105,0.0,4.0,70,0.00,,CLR,0.00,VWS V14.01,2013-10-29 15:02:00,
2013-10-29 11:07:00,54.8,44.8,30.38,ENE,72,0.0,4.0,69,0.00,,CLR,0.00,VWS V14.01,2013-10-29 15:07:00,
2013-10-29 11:12:00,55.1,45.1,30.39,WNW,294,3.0,4.0,69,0.00,,CLR,0.00,VWS V14.01,2013-10-29 15:12:00,
2013-10-29 11:17:00,55.1,45.9,30.38,WSW,242,0.0,4.0,71,0.00,,CLR,0.00,VWS V14.01,2013-10-29 15:17:00,
2013-10-29 11:22:00,55.7,46.1,30.38,NNW,327,2.0,4.0,70,0.00,,CLR,0.00,VWS V14.01,2013-10-29 15:22:00,
2013-10-29 11:27:00,55.9,44.7,30.38,ENE,60,1.0,4.0,66,0.00,,CLR,0.00,VWS V14.01,2013-10-29 15:27:00,
2013-10-29 11:32:00,55.9,45.9,30.38,NNE,31,0.0,2.0,69,0.00,,CLR,0.00,VWS V14.01,2013-10-29 15:32:00,
2013-10-29 11:37:00,56.3,45.1,30.38,NW,319,1.0,4.0,66,0.00,,CLR,0.00,VWS V14.01,2013-10-29 15:37:00,
2013-10-29 11:42:00,56.2,45.4,30.38,NNW,338,2.0,4.0,67,0.00,,CLR,0.00,VWS V14.01,2013-10-29 15:42:00,
2013-10-29 11:47:00,56.3,45.5,30.38,WSW,238,0.0,4.0,67,0.00,,CLR,0.00,VWS V14.01,2013-10-29 15:47:00,
2013-10-29 11:52:00,56.5,46.1,30.38,South,175,1.0,4.0,68,0.00,,CLR,0.00,VWS V14.01,2013-10-29 15:52:00,
2013-10-29 11:57:00,57.1,45.5,30.38,NNE,30,0.0,4.0,65,0.00,,CLR,0.00,VWS V14.01,2013-10-29 15:57:00,
2013-10-29 12:02:00,57.2,44.7,30.37,SE,138,0.0,3.0,63,0.00,,CLR,0.00,VWS V14.01,2013-10-29 16:02:00,
2013-10-29 12:07:00,56.8,45.6,30.37,SSE,156,0.0,4.0,66,0.00,,CLR,0.00,VWS V14.01,2013-10-29 16:07:00,
2013-10-29 12:12:00,57.0,45.0,30.37,WNW,288,1.0,4.0,64,0.00,,CLR,0.00,VWS V14.01,2013-10-29 16:12:00,
2013-10-29 12:17:00,57.4,46.2,30.37,ESE,111,2.0,4.0,66,0.00,,CLR,0.00,VWS V14.01,2013-10-29 16:17:00,
2013-10-29 12:22:00,57.7,46.0,30.37,SE,139,4.0,5.0,65,0.00,,CLR,0.00,VWS V14.01,2013-10-29 16:22:00,
2013-10-29 12:27:00,57.7,45.6,30.37,SE,133,2.0,5.0,64,0.00,,CLR,0.00,VWS V14.01,2013-10-29 16:27:00,
2013-10-29 12:32:00,58.0,46.3,30.36,WSW,238,1.0,5.0,65,0.00,,CLR,0.00,VWS V14.01,2013-10-29 16:32:00,
2013-10-29 12:37:00,58.3,46.2,30.36,South,176,0.0,5.0,64,0.00,,CLR,0.00,VWS V14.01,2013-10-29 16:37:00,
2013-10-29 12:42:00,58.5,46.0,30.36,North,355,2.0,5.0,63,0.00,,CLR,0.00,VWS V14.01,2013-10-29 16:42:00,
2013-10-29 12:47:00,59.0,46.8,30.36,WSW,250,1.0,5.0,64,0.00,,CLR,0.00,VWS V14.01,2013-10-29 16:47:00,
2013-10-29 12:52:00,59.8,47.6,30.35,NW,309,1.0,5.0,64,0.00,,CLR,0.00,VWS V14.01,2013-10-29 16:52:00,
2013-10-29 12:57:00,60.3,46.4,30.35,NW,305,0.0,5.0,60,0.00,,CLR,0.00,VWS V14.01,2013-10-29 16:57:00,
2013-10-29 13:02:00,60.6,45.8,30.35,SE,142,1.0,3.0,58,0.00,,CLR,0.00,VWS V14.01,2013-10-29 17:02:00,
2013-10-29 13:07:00,60.4,45.6,30.35,South,173,0.0,3.0,58,0.00,,CLR,0.00,VWS V14.01,2013-10-29 17:07:00,
2013-10-29 13:12:00,60.4,45.1,30.35,South,176,0.0,3.0,57,0.00,,CLR,0.00,VWS V14.01,2013-10-29 17:12:00,
2013-10-29 13:17:00,60.6,45.3,30.34,NNW,345,2.0,3.0,57,0.00,,CLR,0.00,VWS V14.01,2013-10-29 17:17:00,
2013-10-29 13:22:00,61.0,46.6,30.34,ESE,102,0.0,3.0,59,0.00,,CLR,0.00,VWS V14.01,2013-10-29 17:22:00,
2013-10-29 13:27:00,61.1,45.3,30.34,ENE,62,1.0,4.0,56,0.00,,CLR,0.00,VWS V14.01,2013-10-29 17:27:00,
2013-10-29 13:32:00,60.9,45.1,30.34,SSW,203,0.0,2.0,56,0.00,,CLR,0.00,VWS V14.01,2013-10-29 17:32:00,
2013-10-29 13:37:00,61.2,44.9,30.34,SE,124,2.0,3.0,55,0.00,,CLR,0.00,VWS V14.01,2013-10-29 17:37:00,
2013-10-29 13:42:00,61.2,45.9,30.33,ESE,105,1.0,4.0,57,0.00,,CLR,0.00,VWS V14.01,2013-10-29 17:42:00,
2013-10-29 13:47:00,61.4,45.1,30.33,SSE,150,0.0,4.0,55,0.00,,CLR,0.00,VWS V14.01,2013-10-29 17:47:00,
2013-10-29 13:52:00,61.9,47.4,30.33,WSW,257,1.0,4.0,59,0.00,,CLR,0.00,VWS V14.01,2013-10-29 17:52:00,
2013-10-29 13:57:00,62.1,45.8,30.33,West,272,2.0,4.0,55,0.00,,CLR,0.00,VWS V14.01,2013-10-29 17:57:00,
2013-10-29 14:02:00,62.1,45.8,30.33,WSW,239,2.0,3.0,55,0.00,,CLR,0.00,VWS V14.01,2013-10-29 18:02:00,
2013-10-29 14:07:00,62.2,45.8,30.33,NW,304,0.0,3.0,55,0.00,,CLR,0.00,VWS V14.01,2013-10-29 18:07:00,
2013-10-29 14:13:00,62.4,45.1,30.33,East,84,1.0,3.0,53,0.00,,CLR,0.00,VWS V14.01,2013-10-29 18:13:00,
2013-10-29 14:18:00,62.5,46.1,30.33,SE,130,1.0,5.0,55,0.00,,CLR,0.00,VWS V14.01,2013-10-29 18:18:00,
2013-10-29 14:23:00,62.6,46.2,30.32,ENE,71,4.0,5.0,55,0.00,,CLR,0.00,VWS V14.01,2013-10-29 18:23:00,
2013-10-29 14:28:00,62.1,45.3,30.32,SSE,161,0.0,5.0,54,0.00,,CLR,0.00,VWS V14.01,2013-10-29 18:28:00,
2013-10-29 14:33:00,62.2,46.3,30.31,SSE,157,0.0,3.0,56,0.00,,CLR,0.00,VWS V14.01,2013-10-29 18:33:00,
2013-10-29 14:38:00,62.4,45.5,30.31,SW,232,0.0,3.0,54,0.00,,CLR,0.00,VWS V14.01,2013-10-29 18:38:00,
2013-10-29 14:43:00,62.7,46.3,30.31,WNW,296,2.0,3.0,55,0.00,,CLR,0.00,VWS V14.01,2013-10-29 18:43:00,
2013-10-29 14:48:00,62.8,46.9,30.31,SSW,209,1.0,3.0,56,0.00,,CLR,0.00,VWS V14.01,2013-10-29 18:48:00,
2013-10-29 14:53:00,63.0,46.1,30.31,ENE,69,0.0,3.0,54,0.00,,CLR,0.00,VWS V14.01,2013-10-29 18:53:00,
2013-10-29 14:58:00,62.9,46.5,30.31,NE,37,2.0,4.0,55,0.00,,CLR,0.00,VWS V14.01,2013-10-29 18:58:00,
2013-10-29 15:03:00,63.1,46.7,30.31,ESE,117,4.0,4.0,55,0.00,,CLR,0.00,VWS V14.01,2013-10-29 19:03:00,
2013-10-29 15:08:00,62.7,45.8,30.31,ESE,118,4.0,5.0,54,0.00,,CLR,0.00,VWS V14.01,2013-10-29 19:08:00,
2013-10-29 15:13:00,62.3,46.4,30.31,NE,46,1.0,5.0,56,0.00,,CLR,0.00,VWS V14.01,2013-10-29 19:13:00,
2013-10-29 15:18:00,62.5,46.1,30.30,SE,144,1.0,5.0,55,0.00,,CLR,0.00,VWS V14.01,2013-10-29 19:18:00,
2013-10-29 15:23:00,62.5,46.1,30.31,SSW,192,2.0,5.0,55,0.00,,CLR,0.00,VWS V14.01,2013-10-29 19:23:00,
2013-10-29 15:28:00,62.6,45.7,30.31,SE,142,1.0,5.0,54,0.00,,CLR,0.00,VWS V14.01,2013-10-29 19:28:00,
2013-10-29 15:33:00,62.4,45.5,30.31,SE,143,2.0,4.0,54,0.00,,CLR,0.00,VWS V14.01,2013-10-29 19:33:00,
2013-10-29 15:38:00,62.3,45.5,30.31,WSW,255,1.0,4.0,54,0.00,,CLR,0.00,VWS V14.01,2013-10-29 19:38:00,
2013-10-29 15:43:00,62.3,45.5,30.31,SSW,192,1.0,4.0,54,0.00,,CLR,0.00,VWS V14.01,2013-10-29 19:43:00,
2013-10-29 15:48:00,62.4,45.5,30.31,SSE,157,1.0,4.0,54,0.00,,CLR,0.00,VWS V14.01,2013-10-29 19:48:00,
2013-10-29 15:53:00,62.5,45.7,30.30,East,98,0.0,4.0,54,0.00,,CLR,0.00,VWS V14.01,2013-10-29 19:53:00,
2013-10-29 15:58:00,62.6,46.2,30.31,East,98,0.0,4.0,55,0.00,,CLR,0.00,VWS V14.01,2013-10-29 19:58:00,
2013-10-29 16:03:00,62.9,46.5,30.31,WSW,248,0.0,0.0,55,0.00,,CLR,0.00,VWS V14.01,2013-10-29 20:03:00,
2013-10-29 16:08:00,63.1,46.7,30.31,SSE,155,2.0,3.0,55,0.00,,CLR,0.00,VWS V14.01,2013-10-29 20:08:00,
2013-10-29 16:13:00,62.6,45.7,30.30,SSE,164,1.0,3.0,54,0.00,,CLR,0.00,VWS V14.01,2013-10-29 20:13:00,
2013-10-29 16:18:00,62.1,45.8,30.30,SE,134,0.0,4.0,55,0.00,,CLR,0.00,VWS V14.01,2013-10-29 20:18:00,
2013-10-29 16:23:00,61.8,45.5,30.31,SE,134,0.0,4.0,55,0.00,,CLR,0.00,VWS V14.01,2013-10-29 20:23:00,
2013-10-29 16:28:00,61.7,45.4,30.31,SE,134,0.0,4.0,55,0.00,,CLR,0.00,VWS V14.01,2013-10-29 20:28:00,
2013-10-29 16:33:00,61.5,45.7,30.31,SE,139,2.0,3.0,56,0.00,,CLR,0.00,VWS V14.01,2013-10-29 20:33:00,
2013-10-29 16:38:00,61.4,46.5,30.31,SE,139,1.0,3.0,58,0.00,,CLR,0.00,VWS V14.01,2013-10-29 20:38:00,
2013-10-29 16:43:00,61.3,45.5,30.30,SE,139,0.0,3.0,56,0.00,,CLR,0.00,VWS V14.01,2013-10-29 20:43:00,
2013-10-29 16:48:00,61.2,45.4,30.30,SE,136,0.0,3.0,56,0.00,,CLR,0.00,VWS V14.01,2013-10-29 20:48:00,
2013-10-29 16:53:00,61.1,45.3,30.30,SE,136,0.0,3.0,56,0.00,,CLR,0.00,VWS V14.01,2013-10-29 20:53:00,
2013-10-29 16:58:00,61.0,45.7,30.30,SE,136,0.0,3.0,57,0.00,,CLR,0.00,VWS V14.01,2013-10-29 20:58:00,
2013-10-29 17:03:00,60.9,46.0,30.30,SE,136,0.0,0.0,58,0.00,,CLR,0.00,VWS V14.01,2013-10-29 21:03:00,
2013-10-29 17:08:00,60.8,46.0,30.30,SE,136,0.0,0.0,58,0.00,,CLR,0.00,VWS V14.01,2013-10-29 21:08:00,
2013-10-29 17:13:00,60.6,46.2,30.30,SE,136,0.0,0.0,59,0.00,,CLR,0.00,VWS V14.01,2013-10-29 21:13:00,
2013-10-29 17:18:00,60.3,46.8,30.30,SE,136,0.0,0.0,61,0.00,,CLR,0.00,VWS V14.01,2013-10-29 21:18:00,
2013-10-29 17:23:00,60.1,47.0,30.30,SE,136,0.0,0.0,62,0.00,,CLR,0.00,VWS V14.01,2013-10-29 21:23:00,
2013-10-29 17:28:00,59.8,47.6,30.30,SE,136,0.0,0.0,64,0.00,,CLR,0.00,VWS V14.01,2013-10-29 21:28:00,
2013-10-29 17:33:00,59.4,47.2,30.30,SE,136,0.0,0.0,64,0.00,,CLR,0.00,VWS V14.01,2013-10-29 21:33:00,
2013-10-29 17:38:00,58.9,47.2,30.30,SE,136,0.0,0.0,65,0.00,,CLR,0.00,VWS V14.01,2013-10-29 21:38:00,
2013-10-29 17:43:00,58.3,47.8,30.30,SE,136,0.0,0.0,68,0.00,,CLR,0.00,VWS V14.01,2013-10-29 21:43:00,
2013-10-29 17:48:00,57.9,48.2,30.30,SE,136,0.0,0.0,70,0.00,,CLR,0.00,VWS V14.01,2013-10-29 21:48:00,
2013-10-29 17:53:00,57.4,48.5,30.30,SE,136,0.0,0.0,72,0.00,,CLR,0.00,VWS V14.01,2013-10-29 21:53:00,
2013-10-29 17:58:00,56.9,48.3,30.30,SE,136,0.0,0.0,73,0.00,,CLR,0.00,VWS V14.01,2013-10-29 21:58:00,
2013-10-29 18:03:00,56.2,48.0,30.30,SE,136,0.0,0.0,74,0.00,,CLR,0.00,VWS V14.01,2013-10-29 22:03:00,
2013-10-29 18:08:00,55.6,47.8,30.30,SE,136,0.0,0.0,75,0.00,,CLR,0.00,VWS V14.01,2013-10-29 22:08:00,
2013-10-29 18:13:00,55.0,47.6,30.30,SE,136,0.0,0.0,76,0.00,,CLR,0.00,VWS V14.01,2013-10-29 22:13:00,
2013-10-29 18:18:00,54.3,46.9,30.30,SE,136,0.0,0.0,76,0.00,,CLR,0.00,VWS V14.01,2013-10-29 22:18:00,
2013-10-29 18:23:00,53.5,46.8,30.30,SE,136,0.0,0.0,78,0.00,,CLR,0.00,VWS V14.01,2013-10-29 22:23:00,
2013-10-29 18:28:00,52.8,46.8,30.30,SE,136,0.0,0.0,80,0.00,,CLR,0.00,VWS V14.01,2013-10-29 22:28:00,
2013-10-29 18:33:00,52.1,45.8,30.31,SE,136,0.0,0.0,79,0.00,,CLR,0.00,VWS V14.01,2013-10-29 22:33:00,
2013-10-29 18:38:00,51.5,45.9,30.31,SE,136,0.0,0.0,81,0.00,,CLR,0.00,VWS V14.01,2013-10-29 22:38:00,
2013-10-29 18:43:00,51.0,45.7,30.31,SE,136,0.0,0.0,82,0.00,,CLR,0.00,VWS V14.01,2013-10-29 22:43:00,
2013-10-29 18:48:00,50.3,45.3,30.31,SE,136,0.0,0.0,83,0.00,,CLR,0.00,VWS V14.01,2013-10-29 22:48:00,
2013-10-29 18:53:00,49.8,45.5,30.31,SE,136,0.0,0.0,85,0.00,,CLR,0.00,VWS V14.01,2013-10-29 22:53:00,
2013-10-29 18:58:00,49.6,45.3,30.31,SE,136,0.0,0.0,85,0.00,,CLR,0.00,VWS V14.01,2013-10-29 22:58:00,
2013-10-29 19:03:00,49.0,45.3,30.32,SE,136,0.0,0.0,87,0.00,,CLR,0.00,VWS V14.01,2013-10-29 23:03:00,
2013-10-29 19:08:00,48.6,44.9,30.32,SE,136,0.0,0.0,87,0.00,,CLR,0.00,VWS V14.01,2013-10-29 23:08:00,
2013-10-29 19:13:00,48.2,44.8,30.32,SE,136,0.0,0.0,88,0.00,,CLR,0.00,VWS V14.01,2013-10-29 23:13:00,
2013-10-29 19:18:00,47.8,44.7,30.32,SE,136,0.0,0.0,89,0.00,,CLR,0.00,VWS V14.01,2013-10-29 23:18:00,
2013-10-29 19:23:00,47.4,44.6,30.32,SE,136,0.0,0.0,90,0.00,,CLR,0.00,VWS V14.01,2013-10-29 23:23:00,
2013-10-29 19:28:00,47.1,44.3,30.33,SE,136,0.0,0.0,90,0.00,,CLR,0.00,VWS V14.01,2013-10-29 23:28:00,
2013-10-29 19:33:00,46.7,44.2,30.33,SE,136,0.0,0.0,91,0.00,,CLR,0.00,VWS V14.01,2013-10-29 23:33:00,
2013-10-29 19:38:00,46.4,44.2,30.32,SE,136,0.0,0.0,92,0.00,,CLR,0.00,VWS V14.01,2013-10-29 23:38:00,
2013-10-29 19:43:00,46.1,43.9,30.32,SE,136,0.0,0.0,92,0.00,,CLR,0.00,VWS V14.01,2013-10-29 23:43:00,
2013-10-29 19:48:00,46.0,44.1,30.33,SE,136,0.0,0.0,93,0.00,,CLR,0.00,VWS V14.01,2013-10-29 23:48:00,
2013-10-29 19:54:00,45.8,44.2,30.33,SE,136,0.0,0.0,94,0.00,,CLR,0.00,VWS V14.01,2013-10-29 23:54:00,
2013-10-29 19:59:00,45.6,43.7,30.32,SE,136,0.0,0.0,93,0.00,,CLR,0.00,VWS V14.01,2013-10-29 23:59:00,
2013-10-29 20:04:00,45.5,43.6,30.32,SE,136,0.0,0.0,93,0.00,,CLR,0.00,VWS V14.01,2013-10-30 00:04:00,
2013-10-29 20:09:00,45.3,43.7,30.32,SE,136,0.0,0.0,94,0.00,,CLR,0.00,VWS V14.01,2013-10-30 00:09:00,
2013-10-29 20:14:00,45.1,43.8,30.33,SE,136,0.0,0.0,95,0.00,,CLR,0.00,VWS V14.01,2013-10-30 00:14:00,
2013-10-29 20:19:00,45.0,43.7,30.33,SE,136,0.0,0.0,95,0.00,,CLR,0.00,VWS V14.01,2013-10-30 00:19:00,
2013-10-29 20:24:00,44.8,43.5,30.33,SE,136,0.0,0.0,95,0.00,,CLR,0.00,VWS V14.01,2013-10-30 00:24:00,
2013-10-29 20:29:00,44.6,43.5,30.32,SE,136,0.0,0.0,96,0.00,,CLR,0.00,VWS V14.01,2013-10-30 00:29:00,
2013-10-29 20:34:00,44.5,43.4,30.32,SE,136,0.0,0.0,96,0.00,,CLR,0.00,VWS V14.01,2013-10-30 00:34:00,
2013-10-29 20:39:00,44.3,43.2,30.33,SE,136,0.0,0.0,96,0.00,,CLR,0.00,VWS V14.01,2013-10-30 00:39:00,
2013-10-29 20:44:00,44.2,43.1,30.33,SE,136,0.0,0.0,96,0.00,,CLR,0.00,VWS V14.01,2013-10-30 00:44:00,
2013-10-29 20:49:00,44.1,43.3,30.33,SE,136,0.0,0.0,97,0.00,,CLR,0.00,VWS V14.01,2013-10-30 00:49:00,
2013-10-29 20:54:00,43.9,43.1,30.32,SE,136,0.0,0.0,97,0.00,,CLR,0.00,VWS V14.01,2013-10-30 00:54:00,
2013-10-29 20:59:00,43.9,43.4,30.32,SE,136,0.0,0.0,98,0.00,,CLR,0.00,VWS V14.01,2013-10-30 00:59:00,
2013-10-29 21:04:00,43.8,43.3,30.33,SE,136,0.0,0.0,98,0.00,,CLR,0.00,VWS V14.01,2013-10-30 01:04:00,
2013-10-29 21:09:00,43.7,43.2,30.33,SE,136,0.0,0.0,98,0.00,,CLR,0.00,VWS V14.01,2013-10-30 01:09:00,
2013-10-29 21:14:00,43.6,43.1,30.33,SE,136,0.0,0.0,98,0.00,,CLR,0.00,VWS V14.01,2013-10-30 01:14:00,
2013-10-29 21:19:00,43.7,43.2,30.33,SE,136,0.0,0.0,98,0.00,,CLR,0.00,VWS V14.01,2013-10-30 01:19:00,
2013-10-29 21:24:00,43.7,43.2,30.33,SE,136,0.0,0.0,98,0.00,,CLR,0.00,VWS V14.01,2013-10-30 01:24:00,
2013-10-29 21:29:00,43.7,43.2,30.33,SE,136,0.0,0.0,98,0.00,,CLR,0.00,VWS V14.01,2013-10-30 01:29:00,
2013-10-29 21:34:00,43.8,43.3,30.34,SE,136,0.0,0.0,98,0.00,,CLR,0.00,VWS V14.01,2013-10-30 01:34:00,
2013-10-29 21:39:00,43.8,43.3,30.33,SE,136,0.0,0.0,98,0.00,,CLR,0.00,VWS V14.01,2013-10-30 01:39:00,
2013-10-29 21:44:00,43.8,43.3,30.33,SE,136,0.0,0.0,98,0.00,,CLR,0.00,VWS V14.01,2013-10-30 01:44:00,
2013-10-29 21:49:00,43.8,43.3,30.33,SE,136,0.0,0.0,98,0.00,,CLR,0.00,VWS V14.01,2013-10-30 01:49:00,
2013-10-29 21:54:00,43.9,43.4,30.33,SE,136,0.0,0.0,98,0.00,,CLR,0.00,VWS V14.01,2013-10-30 01:54:00,
2013-10-29 21:59:00,43.9,43.6,30.33,SE,136,0.0,0.0,99,0.00,,CLR,0.00,VWS V14.01,2013-10-30 01:59:00,
2013-10-29 22:04:00,43.9,43.6,30.34,SE,136,0.0,0.0,99,0.00,,CLR,0.00,VWS V14.01,2013-10-30 02:04:00,
2013-10-29 22:09:00,43.9,43.6,30.34,SE,136,0.0,0.0,99,0.00,,CLR,0.00,VWS V14.01,2013-10-30 02:09:00,
2013-10-29 22:14:00,43.9,43.6,30.34,SE,136,0.0,0.0,99,0.00,,CLR,0.00,VWS V14.01,2013-10-30 02:14:00,
2013-10-29 22:19:00,43.9,43.4,30.33,SE,136,0.0,0.0,98,0.00,,CLR,0.00,VWS V14.01,2013-10-30 02:19:00,
2013-10-29 22:24:00,43.8,43.3,30.34,SE,136,0.0,0.0,98,0.00,,CLR,0.00,VWS V14.01,2013-10-30 02:24:00,
2013-10-29 22:29:00,43.7,43.4,30.34,SE,136,0.0,0.0,99,0.00,,CLR,0.00,VWS V14.01,2013-10-30 02:29:00,
2013-10-29 22:34:00,43.7,43.4,30.34,SE,136,0.0,0.0,99,0.00,,CLR,0.00,VWS V14.01,2013-10-30 02:34:00,
2013-10-29 22:39:00,43.7,43.4,30.34,SE,136,0.0,0.0,99,0.00,,CLR,0.00,VWS V14.01,2013-10-30 02:39:00,
2013-10-29 22:44:00,43.7,43.4,30.34,SE,136,0.0,0.0,99,0.00,,CLR,0.00,VWS V14.01,2013-10-30 02:44:00,
2013-10-29 22:49:00,43.6,43.3,30.33,SE,136,0.0,0.0,99,0.00,,CLR,0.00,VWS V14.01,2013-10-30 02:49:00,
2013-10-29 22:54:00,43.6,43.3,30.33,SE,136,0.0,0.0,99,0.00,,CLR,0.00,VWS V14.01,2013-10-30 02:54:00,
2013-10-29 22:59:00,43.6,43.3,30.33,SE,136,0.0,0.0,99,0.00,,CLR,0.00,VWS V14.01,2013-10-30 02:59:00,
2013-10-29 23:04:00,43.5,43.2,30.33,SE,136,0.0,0.0,99,0.00,,CLR,0.00,VWS V14.01,2013-10-30 03:04:00,
2013-10-29 23:09:00,43.5,43.5,30.33,SE,136,0.0,0.0,100,0.00,,CLR,0.00,VWS V14.01,2013-10-30 03:09:00,
2013-10-29 23:14:00,43.4,43.4,30.33,SE,136,0.0,0.0,100,0.00,,CLR,0.00,VWS V14.01,2013-10-30 03:14:00,
2013-10-29 23:19:00,43.3,43.3,30.33,SE,136,0.0,0.0,100,0.00,,CLR,0.00,VWS V14.01,2013-10-30 03:19:00,
2013-10-29 23:24:00,43.2,43.2,30.33,SE,136,0.0,0.0,100,0.00,,CLR,0.00,VWS V14.01,2013-10-30 03:24:00,
2013-10-29 23:29:00,43.2,43.2,30.33,SE,136,0.0,0.0,100,0.00,,CLR,0.00,VWS V14.01,2013-10-30 03:29:00,
2013-10-29 23:34:00,43.2,43.2,30.33,SE,136,0.0,0.0,100,0.00,,CLR,0.00,VWS V14.01,2013-10-30 03:34:00,
2013-10-29 23:39:00,43.1,43.1,30.33,SE,136,0.0,0.0,100,0.00,,CLR,0.00,VWS V14.01,2013-10-30 03:39:00,
2013-10-29 23:44:00,43.1,43.1,30.32,SE,136,0.0,0.0,100,0.00,,SCT060,0.00,VWS V14.01,2013-10-30 03:44:00,
2013-10-29 23:49:00,43.0,43.0,30.32,SE,136,0.0,0.0,100,0.00,,SCT060,0.00,VWS V14.01,2013-10-30 03:49:00,
2013-10-29 23:54:00,43.1,43.1,30.32,SE,136,0.0,0.0,100,0.00,,SCT060,0.00,VWS V14.01,2013-10-30 03:54:00,
2013-10-29 23:59:00,43.0,43.0,30.32,SE,136,0.0,0.0,100,0.00,,SCT060,0.00,VWS V14.01,2013-10-30 03:59:00,